Time,TemperatureF,DewpointF,PressureIn,WindDirection,WindDirectionDegrees,WindSpeedMPH,WindSpeedGustMPH,Humidity,HourlyPrecipIn,Conditions,Clouds,dailyrainin,SoftwareType,DateUTC
2013-03-13 00:00:00,37.4,16.1,30.33,East,90,0.0,0.0,42,0.00,,,0.00,VWS V14.01,2013-03-13 05:00:00,
2013-03-13 00:01:00,37.4,16.1,30.33,East,90,0.0,0.0,42,0.00,,,0.00,VWS V14.01,2013-03-13 05:01:00,
2013-03-13 00:02:00,37.4,16.1,30.33,East,90,0.0,0.0,42,0.00,,,0.00,VWS V14.01,2013-03-13 05:02:00,
2013-03-13 00:03:00,37.2,16.0,30.33,East,90,0.0,0.0,42,0.00,,,0.00,VWS V14.01,2013-03-13 05:03:00,
2013-03-13 00:04:00,37.2,16.0,30.33,East,90,0.0,0.0,42,0.00,,,0.00,VWS V14.01,2013-03-13 05:04:00,
2013-03-13 00:05:00,37.0,15.8,30.33,East,90,0.0,0.0,42,0.00,,,0.00,VWS V14.01,2013-03-13 05:05:00,
2013-03-13 00:06:00,37.0,15.8,30.33,East,90,0.0,0.0,42,0.00,,,0.00,VWS V14.01,2013-03-13 05:06:00,
2013-03-13 00:07:00,37.0,16.4,30.33,East,90,0.0,0.0,42,0.00,,,0.00,VWS V14.01,2013-03-13 05:07:00,
2013-03-13 00:08:00,36.9,16.2,30.33,East,90,0.0,0.0,42,0.00,,,0.00,VWS V14.01,2013-03-13 05:08:00,
2013-03-13 00:09:00,36.9,16.2,30.33,East,90,0.0,0.0,42,0.00,,,0.00,VWS V14.01,2013-03-13 05:09:00,
2013-03-13 00:10:00,36.9,16.2,30.33,East,90,0.0,0.0,42,0.00,,,0.00,VWS V14.01,2013-03-13 05:10:00,
2013-03-13 00:11:00,36.7,16.0,30.33,East,90,0.0,0.0,42,0.00,,,0.00,VWS V14.01,2013-03-13 05:11:00,
2013-03-13 00:12:00,36.7,16.0,30.33,East,90,0.0,0.0,42,0.00,,,0.00,VWS V14.01,2013-03-13 05:12:00,
2013-03-13 00:13:00,36.7,16.0,30.33,East,90,0.0,0.0,42,0.00,,,0.00,VWS V14.01,2013-03-13 05:13:00,
2013-03-13 00:14:00,36.5,15.9,30.33,East,90,0.0,0.0,42,0.00,,,0.00,VWS V14.01,2013-03-13 05:14:00,
2013-03-13 00:15:00,36.5,15.9,30.33,East,90,0.0,0.0,42,0.00,,,0.00,VWS V14.01,2013-03-13 05:15:00,
2013-03-13 00:16:00,36.3,15.7,30.33,East,90,0.0,0.0,42,0.00,,,0.00,VWS V14.01,2013-03-13 05:16:00,
2013-03-13 00:17:00,36.3,15.7,30.33,East,90,0.0,0.0,42,0.00,,,0.00,VWS V14.01,2013-03-13 05:17:00,
2013-03-13 00:18:00,36.1,15.6,30.33,East,90,0.0,0.0,42,0.00,,,0.00,VWS V14.01,2013-03-13 05:18:00,
2013-03-13 00:19:00,36.1,15.6,30.33,East,90,0.0,0.0,42,0.00,,,0.00,VWS V14.01,2013-03-13 05:19:00,
2013-03-13 00:20:00,36.0,15.4,30.33,East,90,0.0,0.0,42,0.00,,,0.00,VWS V14.01,2013-03-13 05:20:00,
2013-03-13 00:21:00,35.8,15.2,30.33,East,90,0.0,0.0,42,0.00,,,0.00,VWS V14.01,2013-03-13 05:21:00,
2013-03-13 00:22:00,35.8,15.2,30.33,East,90,0.0,0.0,42,0.00,,,0.00,VWS V14.01,2013-03-13 05:22:00,
2013-03-13 00:24:00,35.6,15.1,30.33,East,90,0.0,0.0,42,0.00,,,0.00,VWS V14.01,2013-03-13 05:24:00,
2013-03-13 00:25:00,35.4,15.4,30.33,East,90,0.0,0.0,44,0.00,,,0.00,VWS V14.01,2013-03-13 05:25:00,
2013-03-13 00:26:00,35.4,15.4,30.33,East,90,0.0,0.0,44,0.00,,,0.00,VWS V14.01,2013-03-13 05:26:00,
2013-03-13 00:27:00,35.2,15.3,30.33,East,90,0.0,0.0,44,0.00,,,0.00,VWS V14.01,2013-03-13 05:27:00,
2013-03-13 00:28:00,35.1,15.1,30.33,East,90,0.0,0.0,44,0.00,,,0.00,VWS V14.01,2013-03-13 05:28:00,
2013-03-13 00:29:00,35.1,15.1,30.33,East,90,0.0,0.0,44,0.00,,,0.00,VWS V14.01,2013-03-13 05:29:00,
2013-03-13 00:30:00,35.1,15.1,30.33,East,90,0.0,0.0,44,0.00,,,0.00,VWS V14.01,2013-03-13 05:30:00,
2013-03-13 00:31:00,35.1,15.6,30.33,East,90,0.0,0.0,44,0.00,,,0.00,VWS V14.01,2013-03-13 05:31:00,
2013-03-13 00:32:00,35.1,15.6,30.33,East,90,0.0,0.0,44,0.00,,,0.00,VWS V14.01,2013-03-13 05:32:00,
2013-03-13 00:33:00,34.9,15.4,30.33,East,90,0.0,0.0,44,0.00,,,0.00,VWS V14.01,2013-03-13 05:33:00,
2013-03-13 00:34:00,34.9,15.4,30.33,East,90,0.0,0.0,44,0.00,,,0.00,VWS V14.01,2013-03-13 05:34:00,
2013-03-13 00:35:00,35.1,15.6,30.33,East,90,0.0,0.0,44,0.00,,,0.00,VWS V14.01,2013-03-13 05:35:00,
2013-03-13 00:36:00,34.9,15.4,30.33,East,90,0.0,0.0,44,0.00,,,0.00,VWS V14.01,2013-03-13 05:36:00,
2013-03-13 00:37:00,34.9,16.0,30.33,East,90,0.0,0.0,46,0.00,,,0.00,VWS V14.01,2013-03-13 05:37:00,
2013-03-13 00:38:00,34.9,16.0,30.33,East,90,0.0,0.0,46,0.00,,,0.00,VWS V14.01,2013-03-13 05:38:00,
2013-03-13 00:39:00,34.9,16.0,30.33,East,90,0.0,0.0,46,0.00,,,0.00,VWS V14.01,2013-03-13 05:39:00,
2013-03-13 00:40:00,34.9,16.0,30.33,East,90,0.0,0.0,46,0.00,,,0.00,VWS V14.01,2013-03-13 05:40:00,
2013-03-13 00:41:00,35.1,16.1,30.33,SE,135,0.0,0.0,46,0.00,,,0.00,VWS V14.01,2013-03-13 05:41:00,
2013-03-13 00:42:00,35.1,16.1,30.33,SE,135,0.0,0.0,46,0.00,,,0.00,VWS V14.01,2013-03-13 05:42:00,
2013-03-13 00:43:00,35.1,16.1,30.33,SE,135,0.0,0.0,46,0.00,,,0.00,VWS V14.01,2013-03-13 05:43:00,
2013-03-13 00:44:00,35.1,16.1,30.33,SE,135,0.0,0.0,46,0.00,,,0.00,VWS V14.01,2013-03-13 05:44:00,
2013-03-13 00:45:00,35.1,16.1,30.33,SE,135,0.0,0.0,46,0.00,,,0.00,VWS V14.01,2013-03-13 05:45:00,
2013-03-13 00:46:00,34.9,16.0,30.33,SE,135,0.0,0.0,46,0.00,,,0.00,VWS V14.01,2013-03-13 05:46:00,
2013-03-13 00:47:00,34.9,16.0,30.33,SE,135,0.0,0.0,46,0.00,,,0.00,VWS V14.01,2013-03-13 05:47:00,
2013-03-13 00:48:00,34.7,15.8,30.33,SE,135,0.0,0.0,46,0.00,,,0.00,VWS V14.01,2013-03-13 05:48:00,
2013-03-13 00:49:00,34.5,15.6,30.33,SE,135,0.0,0.0,46,0.00,,,0.00,VWS V14.01,2013-03-13 05:49:00,
2013-03-13 00:50:00,34.3,15.5,30.33,SE,135,0.0,0.0,46,0.00,,,0.00,VWS V14.01,2013-03-13 05:50:00,
2013-03-13 00:51:00,34.2,15.3,30.33,SE,135,0.0,0.0,46,0.00,,,0.00,VWS V14.01,2013-03-13 05:51:00,
2013-03-13 00:52:00,34.0,15.1,30.33,SE,135,0.0,0.0,46,0.00,,,0.00,VWS V14.01,2013-03-13 05:52:00,
2013-03-13 00:53:00,34.0,15.1,30.33,SE,135,0.0,0.0,46,0.00,,,0.00,VWS V14.01,2013-03-13 05:53:00,
2013-03-13 00:54:00,34.0,15.1,30.33,SE,135,0.0,0.0,46,0.00,,,0.00,VWS V14.01,2013-03-13 05:54:00,
2013-03-13 00:55:00,33.8,15.0,30.33,SE,135,0.0,0.0,46,0.00,,,0.00,VWS V14.01,2013-03-13 05:55:00,
2013-03-13 00:56:00,33.8,15.0,30.33,SE,135,0.0,0.0,46,0.00,,,0.00,VWS V14.01,2013-03-13 05:56:00,
2013-03-13 00:57:00,34.2,15.8,30.33,SE,135,0.0,0.0,46,0.00,,,0.00,VWS V14.01,2013-03-13 05:57:00,
2013-03-13 00:58:00,34.3,16.0,30.33,SE,135,0.0,0.0,46,0.00,,,0.00,VWS V14.01,2013-03-13 05:58:00,
2013-03-13 00:59:00,34.3,16.0,30.33,SE,135,0.0,0.0,46,0.00,,,0.00,VWS V14.01,2013-03-13 05:59:00,
2013-03-13 01:00:00,34.3,16.0,30.33,SE,135,0.0,0.0,46,0.00,,,0.00,VWS V14.01,2013-03-13 06:00:00,
2013-03-13 01:01:00,34.3,16.0,30.33,SE,135,0.0,0.0,46,0.00,,,0.00,VWS V14.01,2013-03-13 06:01:00,
2013-03-13 01:03:00,34.5,16.1,30.33,SE,135,0.0,0.0,46,0.00,,,0.00,VWS V14.01,2013-03-13 06:03:00,
2013-03-13 01:04:00,34.5,16.1,30.33,SE,135,0.0,0.0,46,0.00,,,0.00,VWS V14.01,2013-03-13 06:04:00,
2013-03-13 01:05:00,34.5,16.1,30.33,SE,135,0.0,0.0,46,0.00,,,0.00,VWS V14.01,2013-03-13 06:05:00,
2013-03-13 01:06:00,34.7,15.8,30.33,SE,135,0.0,0.0,46,0.00,,,0.00,VWS V14.01,2013-03-13 06:06:00,
2013-03-13 01:07:00,34.7,15.8,30.33,SE,135,0.0,0.0,46,0.00,,,0.00,VWS V14.01,2013-03-13 06:07:00,
2013-03-13 01:08:00,34.5,15.6,30.33,SE,135,0.0,0.0,46,0.00,,,0.00,VWS V14.01,2013-03-13 06:08:00,
2013-03-13 01:09:00,34.5,16.1,30.33,SE,135,0.0,0.0,46,0.00,,,0.00,VWS V14.01,2013-03-13 06:09:00,
2013-03-13 01:10:00,34.5,16.1,30.33,SE,135,0.0,0.0,46,0.00,,,0.00,VWS V14.01,2013-03-13 06:10:00,
2013-03-13 01:11:00,34.3,16.0,30.33,SE,135,0.0,0.0,46,0.00,,,0.00,VWS V14.01,2013-03-13 06:11:00,
2013-03-13 01:12:00,34.3,16.0,30.33,SE,135,0.0,0.0,46,0.00,,,0.00,VWS V14.01,2013-03-13 06:12:00,
2013-03-13 01:13:00,34.3,16.0,30.33,SE,135,0.0,0.0,46,0.00,,,0.00,VWS V14.01,2013-03-13 06:13:00,
2013-03-13 01:14:00,34.3,16.0,30.33,SE,135,0.0,0.0,46,0.00,,,0.00,VWS V14.01,2013-03-13 06:14:00,
2013-03-13 01:15:00,34.3,16.0,30.33,SE,135,0.0,0.0,46,0.00,,,0.00,VWS V14.01,2013-03-13 06:15:00,
2013-03-13 01:16:00,34.3,16.0,30.33,SE,135,0.0,0.0,46,0.00,,,0.00,VWS V14.01,2013-03-13 06:16:00,
2013-03-13 01:17:00,34.3,16.0,30.33,SE,135,0.0,0.0,46,0.00,,,0.00,VWS V14.01,2013-03-13 06:17:00,
2013-03-13 01:18:00,34.3,16.0,30.33,SE,135,0.0,0.0,46,0.00,,,0.00,VWS V14.01,2013-03-13 06:18:00,
2013-03-13 01:19:00,34.3,16.0,30.33,SE,135,0.0,0.0,46,0.00,,,0.00,VWS V14.01,2013-03-13 06:19:00,
2013-03-13 01:20:00,34.3,16.0,30.33,SE,135,0.0,0.0,46,0.00,,,0.00,VWS V14.01,2013-03-13 06:20:00,
2013-03-13 01:21:00,34.2,15.8,30.33,SE,135,0.0,0.0,46,0.00,,,0.00,VWS V14.01,2013-03-13 06:21:00,
2013-03-13 01:22:00,34.0,15.6,30.33,SE,135,0.0,0.0,46,0.00,,,0.00,VWS V14.01,2013-03-13 06:22:00,
2013-03-13 01:23:00,34.0,15.6,30.33,SE,135,0.0,0.0,46,0.00,,,0.00,VWS V14.01,2013-03-13 06:23:00,
2013-03-13 01:24:00,33.8,15.5,30.33,SE,135,0.0,0.0,46,0.00,,,0.00,VWS V14.01,2013-03-13 06:24:00,
2013-03-13 01:25:00,33.8,15.5,30.33,SE,135,0.0,0.0,46,0.00,,,0.00,VWS V14.01,2013-03-13 06:25:00,
2013-03-13 01:26:00,33.6,15.3,30.33,SE,135,0.0,0.0,46,0.00,,,0.00,VWS V14.01,2013-03-13 06:26:00,
2013-03-13 01:27:00,33.6,15.3,30.33,SE,135,0.0,0.0,46,0.00,,,0.00,VWS V14.01,2013-03-13 06:27:00,
2013-03-13 01:28:00,33.3,15.0,30.33,SE,135,0.0,0.0,46,0.00,,,0.00,VWS V14.01,2013-03-13 06:28:00,
2013-03-13 01:29:00,33.1,14.8,30.33,SE,135,0.0,0.0,46,0.00,,,0.00,VWS V14.01,2013-03-13 06:29:00,
2013-03-13 01:30:00,33.1,14.8,30.33,SE,135,0.0,0.0,46,0.00,,,0.00,VWS V14.01,2013-03-13 06:30:00,
2013-03-13 01:31:00,32.9,14.6,30.33,SE,135,0.0,0.0,46,0.00,,,0.00,VWS V14.01,2013-03-13 06:31:00,
2013-03-13 01:32:00,32.9,15.1,30.33,SE,135,0.0,0.0,48,0.00,,,0.00,VWS V14.01,2013-03-13 06:32:00,
2013-03-13 01:33:00,32.9,15.1,30.33,SE,135,0.0,0.0,48,0.00,,,0.00,VWS V14.01,2013-03-13 06:33:00,
2013-03-13 01:34:00,32.7,15.0,30.33,SE,135,0.0,0.0,48,0.00,,,0.00,VWS V14.01,2013-03-13 06:34:00,
2013-03-13 01:35:00,32.7,15.0,30.33,SE,135,0.0,0.0,48,0.00,,,0.00,VWS V14.01,2013-03-13 06:35:00,
2013-03-13 01:36:00,32.7,15.0,30.33,SE,135,0.0,0.0,48,0.00,,,0.00,VWS V14.01,2013-03-13 06:36:00,
2013-03-13 01:37:00,32.7,15.0,30.33,SE,135,0.0,0.0,48,0.00,,,0.00,VWS V14.01,2013-03-13 06:37:00,
2013-03-13 01:38:00,32.5,14.8,30.33,SE,135,0.0,0.0,48,0.00,,,0.00,VWS V14.01,2013-03-13 06:38:00,
2013-03-13 01:39:00,32.5,14.8,30.33,SE,135,0.0,0.0,48,0.00,,,0.00,VWS V14.01,2013-03-13 06:39:00,
2013-03-13 01:40:00,32.4,14.6,30.33,SE,135,0.0,0.0,48,0.00,,,0.00,VWS V14.01,2013-03-13 06:40:00,
2013-03-13 01:41:00,32.4,14.6,30.33,SE,135,0.0,0.0,48,0.00,,,0.00,VWS V14.01,2013-03-13 06:41:00,
2013-03-13 01:42:00,32.4,15.1,30.33,SE,135,0.0,0.0,48,0.00,,,0.00,VWS V14.01,2013-03-13 06:42:00,
2013-03-13 01:43:00,32.4,15.1,30.33,SE,135,0.0,0.0,48,0.00,,,0.00,VWS V14.01,2013-03-13 06:43:00,
2013-03-13 01:44:00,32.4,15.1,30.33,SE,135,0.0,0.0,48,0.00,,,0.00,VWS V14.01,2013-03-13 06:44:00,
2013-03-13 01:45:00,32.5,15.3,30.33,SE,135,0.0,0.0,48,0.00,,,0.00,VWS V14.01,2013-03-13 06:45:00,
2013-03-13 01:46:00,32.5,15.3,30.33,SE,135,0.0,0.0,48,0.00,,,0.00,VWS V14.01,2013-03-13 06:46:00,
2013-03-13 01:47:00,32.5,15.3,30.33,SE,135,0.0,0.0,48,0.00,,,0.00,VWS V14.01,2013-03-13 06:47:00,
2013-03-13 01:48:00,32.5,15.8,30.33,SE,135,0.0,0.0,50,0.00,,,0.00,VWS V14.01,2013-03-13 06:48:00,
2013-03-13 01:49:00,32.7,15.9,30.33,SE,135,0.0,0.0,50,0.00,,,0.00,VWS V14.01,2013-03-13 06:49:00,
2013-03-13 01:50:00,32.7,15.9,30.33,SE,135,0.0,0.0,50,0.00,,,0.00,VWS V14.01,2013-03-13 06:50:00,
2013-03-13 01:51:00,32.7,15.9,30.33,SE,135,0.0,0.0,50,0.00,,,0.00,VWS V14.01,2013-03-13 06:51:00,
2013-03-13 01:52:00,32.7,15.9,30.33,SE,135,0.0,0.0,50,0.00,,,0.00,VWS V14.01,2013-03-13 06:52:00,
2013-03-13 01:55:00,32.5,15.8,30.33,SE,135,0.0,0.0,50,0.00,,,0.00,VWS V14.01,2013-03-13 06:55:00,
2013-03-13 01:56:00,32.4,15.6,30.33,SE,135,0.0,0.0,50,0.00,,,0.00,VWS V14.01,2013-03-13 06:56:00,
2013-03-13 01:57:00,32.4,15.6,30.33,SE,135,0.0,0.0,50,0.00,,,0.00,VWS V14.01,2013-03-13 06:57:00,
2013-03-13 01:58:00,32.2,15.4,30.33,SE,135,0.0,0.0,50,0.00,,,0.00,VWS V14.01,2013-03-13 06:58:00,
2013-03-13 01:59:00,32.2,15.4,30.33,SE,135,0.0,0.0,50,0.00,,,0.00,VWS V14.01,2013-03-13 06:59:00,
2013-03-13 02:00:00,32.2,15.4,30.33,SE,135,0.0,0.0,50,0.00,,,0.00,VWS V14.01,2013-03-13 07:00:00,
2013-03-13 02:01:00,32.2,15.4,30.33,SE,135,0.0,0.0,50,0.00,,,0.00,VWS V14.01,2013-03-13 07:01:00,
2013-03-13 02:02:00,32.0,15.2,30.33,SE,135,0.0,0.0,50,0.00,,,0.00,VWS V14.01,2013-03-13 07:02:00,
2013-03-13 02:03:00,32.0,15.7,30.33,SE,135,0.0,0.0,50,0.00,,,0.00,VWS V14.01,2013-03-13 07:03:00,
2013-03-13 02:04:00,31.8,15.5,30.33,SE,135,0.0,0.0,50,0.00,,,0.00,VWS V14.01,2013-03-13 07:04:00,
2013-03-13 02:05:00,31.6,15.4,30.33,SE,135,0.0,0.0,50,0.00,,,0.00,VWS V14.01,2013-03-13 07:05:00,
2013-03-13 02:06:00,31.6,14.9,30.33,SE,135,0.0,0.0,50,0.00,,,0.00,VWS V14.01,2013-03-13 07:06:00,
2013-03-13 02:08:00,31.5,15.2,30.33,SE,135,0.0,0.0,50,0.00,,,0.00,VWS V14.01,2013-03-13 07:08:00,
2013-03-13 02:09:00,31.5,15.2,30.33,SE,135,0.0,0.0,50,0.00,,,0.00,VWS V14.01,2013-03-13 07:09:00,
2013-03-13 02:10:00,31.5,15.2,30.33,SE,135,0.0,0.0,50,0.00,,,0.00,VWS V14.01,2013-03-13 07:10:00,
2013-03-13 02:11:00,31.5,15.2,30.33,SE,135,0.0,0.0,50,0.00,,,0.00,VWS V14.01,2013-03-13 07:11:00,
2013-03-13 02:12:00,31.3,15.0,30.33,SE,135,0.0,0.0,50,0.00,,,0.00,VWS V14.01,2013-03-13 07:12:00,
2013-03-13 02:13:00,31.3,15.0,30.33,SE,135,0.0,0.0,50,0.00,,,0.00,VWS V14.01,2013-03-13 07:13:00,
2013-03-13 02:14:00,31.1,14.9,30.33,SE,135,0.0,0.0,50,0.00,,,0.00,VWS V14.01,2013-03-13 07:14:00,
2013-03-13 02:15:00,30.9,14.2,30.33,SE,135,0.0,0.0,50,0.00,,,0.00,VWS V14.01,2013-03-13 07:15:00,
2013-03-13 02:16:00,30.7,14.1,30.33,SE,135,0.0,0.0,50,0.00,,,0.00,VWS V14.01,2013-03-13 07:16:00,
2013-03-13 02:17:00,30.6,13.9,30.33,SE,135,0.0,0.0,50,0.00,,,0.00,VWS V14.01,2013-03-13 07:17:00,
2013-03-13 02:18:00,30.6,13.9,30.33,SE,135,0.0,0.0,50,0.00,,,0.00,VWS V14.01,2013-03-13 07:18:00,
2013-03-13 02:19:00,30.6,13.9,30.33,SE,135,0.0,0.0,50,0.00,,,0.00,VWS V14.01,2013-03-13 07:19:00,
2013-03-13 02:20:00,30.4,13.8,30.33,SE,135,0.0,0.0,50,0.00,,,0.00,VWS V14.01,2013-03-13 07:20:00,
2013-03-13 02:21:00,30.4,13.8,30.33,SE,135,0.0,0.0,50,0.00,,,0.00,VWS V14.01,2013-03-13 07:21:00,
2013-03-13 02:22:00,30.0,13.9,30.33,SE,135,0.0,0.0,50,0.00,,,0.00,VWS V14.01,2013-03-13 07:22:00,
2013-03-13 02:23:00,29.8,13.7,30.33,SE,135,0.0,0.0,50,0.00,,,0.00,VWS V14.01,2013-03-13 07:23:00,
2013-03-13 02:24:00,29.8,13.7,30.33,SE,135,0.0,0.0,50,0.00,,,0.00,VWS V14.01,2013-03-13 07:24:00,
2013-03-13 02:25:00,29.7,13.5,30.33,SE,135,0.0,0.0,50,0.00,,,0.00,VWS V14.01,2013-03-13 07:25:00,
2013-03-13 02:26:00,29.7,13.5,30.33,SE,135,0.0,0.0,50,0.00,,,0.00,VWS V14.01,2013-03-13 07:26:00,
2013-03-13 02:27:00,29.8,13.7,30.33,SE,135,0.0,0.0,50,0.00,,,0.00,VWS V14.01,2013-03-13 07:27:00,
2013-03-13 02:28:00,30.2,14.5,30.33,SE,135,0.0,0.0,52,0.00,,,0.00,VWS V14.01,2013-03-13 07:28:00,
2013-03-13 02:29:00,30.2,14.9,30.33,SE,135,0.0,0.0,52,0.00,,,0.00,VWS V14.01,2013-03-13 07:29:00,
2013-03-13 02:30:00,30.2,14.9,30.33,SE,135,0.0,0.0,52,0.00,,,0.00,VWS V14.01,2013-03-13 07:30:00,
2013-03-13 02:31:00,30.2,14.9,30.33,SE,135,0.0,0.0,52,0.00,,,0.00,VWS V14.01,2013-03-13 07:31:00,
2013-03-13 02:32:00,30.2,14.9,30.33,SE,135,0.0,0.0,52,0.00,,,0.00,VWS V14.01,2013-03-13 07:32:00,
2013-03-13 02:33:00,30.2,14.9,30.33,SE,135,0.0,0.0,52,0.00,,,0.00,VWS V14.01,2013-03-13 07:33:00,
2013-03-13 02:34:00,30.2,14.9,30.33,SE,135,0.0,0.0,52,0.00,,,0.00,VWS V14.01,2013-03-13 07:34:00,
2013-03-13 02:35:00,30.2,14.9,30.33,SE,135,0.0,0.0,52,0.00,,,0.00,VWS V14.01,2013-03-13 07:35:00,
2013-03-13 02:36:00,30.0,15.2,30.36,SE,135,0.0,0.0,54,0.00,,,0.00,VWS V14.01,2013-03-13 07:36:00,
2013-03-13 02:37:00,29.8,15.0,30.36,SE,135,0.0,0.0,54,0.00,,,0.00,VWS V14.01,2013-03-13 07:37:00,
2013-03-13 02:38:00,29.7,14.9,30.36,SE,135,0.0,0.0,54,0.00,,,0.00,VWS V14.01,2013-03-13 07:38:00,
2013-03-13 02:39:00,29.5,14.7,30.36,SE,135,0.0,0.0,54,0.00,,,0.00,VWS V14.01,2013-03-13 07:39:00,
2013-03-13 02:40:00,29.5,14.7,30.36,SE,135,0.0,0.0,54,0.00,,,0.00,VWS V14.01,2013-03-13 07:40:00,
2013-03-13 02:41:00,29.5,14.7,30.36,SE,135,0.0,0.0,54,0.00,,,0.00,VWS V14.01,2013-03-13 07:41:00,
2013-03-13 02:42:00,29.5,14.7,30.36,SE,135,0.0,0.0,54,0.00,,,0.00,VWS V14.01,2013-03-13 07:42:00,
2013-03-13 02:43:00,29.3,14.5,30.36,SE,135,0.0,0.0,54,0.00,,,0.00,VWS V14.01,2013-03-13 07:43:00,
2013-03-13 02:44:00,29.3,14.9,30.36,SE,135,0.0,0.0,54,0.00,,,0.00,VWS V14.01,2013-03-13 07:44:00,
2013-03-13 02:45:00,29.1,14.8,30.36,SE,135,0.0,0.0,54,0.00,,,0.00,VWS V14.01,2013-03-13 07:45:00,
2013-03-13 02:46:00,29.1,14.8,30.36,SE,135,0.0,0.0,54,0.00,,,0.00,VWS V14.01,2013-03-13 07:46:00,
2013-03-13 02:47:00,28.9,14.6,30.36,SE,135,0.0,0.0,54,0.00,,,0.00,VWS V14.01,2013-03-13 07:47:00,
2013-03-13 02:48:00,28.9,14.6,30.36,SE,135,0.0,0.0,54,0.00,,,0.00,VWS V14.01,2013-03-13 07:48:00,
2013-03-13 02:49:00,28.9,14.6,30.36,SE,135,0.0,0.0,54,0.00,,,0.00,VWS V14.01,2013-03-13 07:49:00,
2013-03-13 02:50:00,28.8,14.4,30.36,SE,135,0.0,0.0,54,0.00,,,0.00,VWS V14.01,2013-03-13 07:50:00,
2013-03-13 02:51:00,28.9,14.6,30.33,SE,135,0.0,0.0,54,0.00,,,0.00,VWS V14.01,2013-03-13 07:51:00,
2013-03-13 02:52:00,28.9,14.6,30.33,SE,135,0.0,0.0,54,0.00,,,0.00,VWS V14.01,2013-03-13 07:52:00,
2013-03-13 02:53:00,28.9,14.6,30.33,SE,135,0.0,0.0,54,0.00,,,0.00,VWS V14.01,2013-03-13 07:53:00,
2013-03-13 02:54:00,28.9,14.6,30.33,SE,135,0.0,0.0,54,0.00,,,0.00,VWS V14.01,2013-03-13 07:54:00,
2013-03-13 02:55:00,28.8,14.4,30.33,SE,135,0.0,0.0,54,0.00,,,0.00,VWS V14.01,2013-03-13 07:55:00,
2013-03-13 02:56:00,28.8,14.4,30.33,SE,135,0.0,0.0,54,0.00,,,0.00,VWS V14.01,2013-03-13 07:56:00,
2013-03-13 02:57:00,28.6,14.3,30.33,SE,135,0.0,0.0,54,0.00,,,0.00,VWS V14.01,2013-03-13 07:57:00,
2013-03-13 02:58:00,28.6,14.3,30.33,SE,135,0.0,0.0,54,0.00,,,0.00,VWS V14.01,2013-03-13 07:58:00,
2013-03-13 02:59:00,28.2,13.9,30.33,SE,135,0.0,0.0,54,0.00,,,0.00,VWS V14.01,2013-03-13 07:59:00,
2013-03-13 03:00:00,28.0,14.2,30.33,SE,135,0.0,0.0,56,0.00,,,0.00,VWS V14.01,2013-03-13 08:00:00,
2013-03-13 03:01:00,28.0,14.2,30.33,SE,135,0.0,0.0,56,0.00,,,0.00,VWS V14.01,2013-03-13 08:01:00,
2013-03-13 03:02:00,28.0,14.2,30.33,SE,135,0.0,0.0,56,0.00,,,0.00,VWS V14.01,2013-03-13 08:02:00,
2013-03-13 03:03:00,27.9,14.0,30.33,SE,135,0.0,0.0,56,0.00,,,0.00,VWS V14.01,2013-03-13 08:03:00,
2013-03-13 03:04:00,27.5,13.7,30.33,SE,135,0.0,0.0,56,0.00,,,0.00,VWS V14.01,2013-03-13 08:04:00,
2013-03-13 03:05:00,27.5,13.7,30.33,SE,135,0.0,0.0,56,0.00,,,0.00,VWS V14.01,2013-03-13 08:05:00,
2013-03-13 03:06:00,27.3,13.5,30.33,SE,135,0.0,0.0,56,0.00,,,0.00,VWS V14.01,2013-03-13 08:06:00,
2013-03-13 03:07:00,27.3,13.5,30.33,SE,135,0.0,0.0,56,0.00,,,0.00,VWS V14.01,2013-03-13 08:07:00,
2013-03-13 03:08:00,27.5,13.7,30.33,SE,135,0.0,0.0,56,0.00,,,0.00,VWS V14.01,2013-03-13 08:08:00,
2013-03-13 03:09:00,27.7,14.2,30.33,SE,135,0.0,0.0,56,0.00,,,0.00,VWS V14.01,2013-03-13 08:09:00,
2013-03-13 03:10:00,27.7,14.2,30.33,SE,135,0.0,0.0,56,0.00,,,0.00,VWS V14.01,2013-03-13 08:10:00,
2013-03-13 03:11:00,27.7,14.2,30.33,SE,135,0.0,0.0,56,0.00,,,0.00,VWS V14.01,2013-03-13 08:11:00,
2013-03-13 03:12:00,27.7,14.6,30.33,SE,135,0.0,0.0,58,0.00,,,0.00,VWS V14.01,2013-03-13 08:12:00,
2013-03-13 03:13:00,27.9,14.8,30.33,SE,135,0.0,0.0,58,0.00,,,0.00,VWS V14.01,2013-03-13 08:13:00,
2013-03-13 03:14:00,27.9,14.8,30.33,SE,135,0.0,0.0,58,0.00,,,0.00,VWS V14.01,2013-03-13 08:14:00,
2013-03-13 03:15:00,27.9,14.8,30.33,SE,135,0.0,0.0,58,0.00,,,0.00,VWS V14.01,2013-03-13 08:15:00,
2013-03-13 03:16:00,27.9,14.8,30.33,SE,135,0.0,0.0,58,0.00,,,0.00,VWS V14.01,2013-03-13 08:16:00,
2013-03-13 03:17:00,27.9,15.2,30.33,SE,135,0.0,0.0,58,0.00,,,0.00,VWS V14.01,2013-03-13 08:17:00,
2013-03-13 03:19:00,27.9,15.2,30.33,SE,135,0.0,0.0,58,0.00,,,0.00,VWS V14.01,2013-03-13 08:19:00,
2013-03-13 03:20:00,27.9,15.2,30.33,SE,135,0.0,0.0,58,0.00,,,0.00,VWS V14.01,2013-03-13 08:20:00,
2013-03-13 03:21:00,27.9,15.2,30.33,SE,135,0.0,0.0,58,0.00,,,0.00,VWS V14.01,2013-03-13 08:21:00,
2013-03-13 03:22:00,27.9,15.2,30.33,SE,135,0.0,0.0,58,0.00,,,0.00,VWS V14.01,2013-03-13 08:22:00,
2013-03-13 08:10:00,30.2,20.0,30.44,South,180,0.0,0.0,66,0.00,,,0.00,VWS V14.01,2013-03-13 13:10:00,
2013-03-13 08:15:00,30.9,20.0,30.44,South,180,3.6,4.9,64,0.00,,,0.00,VWS V14.01,2013-03-13 13:15:00,
2013-03-13 08:20:00,31.1,19.4,30.44,SSW,202,3.1,3.1,62,0.00,,,0.00,VWS V14.01,2013-03-13 13:20:00,
2013-03-13 08:25:00,31.6,19.6,30.44,South,180,0.0,3.6,60,0.00,,,0.00,VWS V14.01,2013-03-13 13:25:00,
2013-03-13 08:30:00,32.0,19.1,30.44,South,180,0.0,3.1,58,0.00,,,0.00,VWS V14.01,2013-03-13 13:30:00,
2013-03-13 08:35:00,33.1,20.1,30.44,South,180,0.0,0.0,58,0.00,,,0.00,VWS V14.01,2013-03-13 13:35:00,
2013-03-13 08:40:00,33.6,20.2,30.44,South,180,3.1,3.6,58,0.00,,,0.00,VWS V14.01,2013-03-13 13:40:00,
2013-03-13 08:46:00,33.1,18.5,30.44,South,180,4.9,5.4,54,0.00,,,0.00,VWS V14.01,2013-03-13 13:46:00,
2013-03-13 08:51:00,33.3,18.6,30.47,South,180,0.0,4.9,54,0.00,,,0.00,VWS V14.01,2013-03-13 13:51:00,
2013-03-13 08:56:00,34.0,18.9,30.47,South,180,4.0,5.4,54,0.00,,,0.00,VWS V14.01,2013-03-13 13:56:00,
2013-03-13 09:01:00,34.2,18.6,30.47,SE,135,5.8,7.2,52,0.00,,,0.00,VWS V14.01,2013-03-13 14:01:00,
2013-03-13 09:06:00,34.0,18.4,30.47,South,180,3.6,7.2,52,0.00,,,0.00,VWS V14.01,2013-03-13 14:06:00,
2013-03-13 09:11:00,34.2,18.2,30.47,ESE,112,5.8,8.3,52,0.00,,,0.00,VWS V14.01,2013-03-13 14:11:00,
2013-03-13 09:16:00,34.5,18.0,30.47,SSE,158,7.2,7.6,50,0.00,,,0.00,VWS V14.01,2013-03-13 14:16:00,
2013-03-13 09:21:00,34.7,18.2,30.47,SE,135,5.8,5.8,50,0.00,,,0.00,VWS V14.01,2013-03-13 14:21:00,
2013-03-13 09:26:00,35.4,18.4,30.47,South,180,5.8,5.8,50,0.00,,,0.00,VWS V14.01,2013-03-13 14:26:00,
2013-03-13 09:31:00,35.4,17.9,30.47,SE,135,6.3,6.3,48,0.00,,,0.00,VWS V14.01,2013-03-13 14:31:00,
2013-03-13 09:36:00,35.6,18.1,30.47,South,180,8.1,8.3,48,0.00,,,0.00,VWS V14.01,2013-03-13 14:36:00,
2013-03-13 09:41:00,35.8,17.8,30.47,SSE,158,8.1,9.6,48,0.00,,,0.00,VWS V14.01,2013-03-13 14:41:00,
2013-03-13 09:46:00,35.4,17.5,30.47,SSE,158,5.8,8.7,48,0.00,,,0.00,VWS V14.01,2013-03-13 14:46:00,
2013-03-13 09:51:00,35.4,17.5,30.47,SSE,158,5.4,7.6,48,0.00,,,0.00,VWS V14.01,2013-03-13 14:51:00,
2013-03-13 09:56:00,35.8,17.8,30.47,SE,135,3.1,5.4,48,0.00,,,0.00,VWS V14.01,2013-03-13 14:56:00,
2013-03-13 10:01:00,37.6,19.4,30.47,East,90,6.3,6.3,48,0.00,,,0.00,VWS V14.01,2013-03-13 15:01:00,
2013-03-13 10:06:00,37.2,18.6,30.47,South,180,10.1,10.1,46,0.00,,,0.00,VWS V14.01,2013-03-13 15:06:00,
2013-03-13 10:11:00,36.7,18.1,30.47,SE,135,4.9,8.7,46,0.00,,,0.00,VWS V14.01,2013-03-13 15:11:00,
2013-03-13 10:16:00,36.9,18.3,30.47,SE,135,3.1,5.8,46,0.00,,,0.00,VWS V14.01,2013-03-13 15:16:00,
2013-03-13 10:20:00,37.0,18.9,30.47,SE,135,4.0,8.3,48,0.00,,,0.00,VWS V14.01,2013-03-13 15:20:00,
2013-03-13 10:25:00,37.4,18.3,30.47,South,180,8.1,8.1,46,0.00,,,0.00,VWS V14.01,2013-03-13 15:25:00,
2013-03-13 10:30:00,37.4,18.8,30.47,South,180,8.1,9.6,46,0.00,,,0.00,VWS V14.01,2013-03-13 15:30:00,
2013-03-13 10:35:00,37.4,18.8,30.47,South,180,7.2,8.1,46,0.00,,,0.00,VWS V14.01,2013-03-13 15:35:00,
2013-03-13 10:40:00,39.0,20.3,30.47,SSE,158,0.0,4.0,46,0.00,,,0.00,VWS V14.01,2013-03-13 15:40:00,
2013-03-13 10:45:00,39.9,20.6,30.47,South,180,4.9,4.9,46,0.00,,,0.00,VWS V14.01,2013-03-13 15:45:00,
2013-03-13 10:50:00,39.4,19.0,30.47,SE,135,4.9,8.7,44,0.00,,,0.00,VWS V14.01,2013-03-13 15:50:00,
2013-03-13 10:55:00,40.5,20.5,30.47,East,90,0.0,2.2,44,0.00,,,0.00,VWS V14.01,2013-03-13 15:55:00,
2013-03-13 11:00:00,41.5,21.0,30.47,SE,135,4.9,4.9,44,0.00,,,0.00,VWS V14.01,2013-03-13 16:00:00,
2013-03-13 11:05:00,42.4,21.8,30.47,SSW,202,10.1,10.1,44,0.00,,,0.00,VWS V14.01,2013-03-13 16:05:00,
2013-03-13 11:10:00,41.7,20.6,30.47,SE,135,5.8,8.1,42,0.00,,,0.00,VWS V14.01,2013-03-13 16:10:00,
2013-03-13 11:15:00,40.5,18.9,30.47,SE,135,3.6,7.6,42,0.00,,,0.00,VWS V14.01,2013-03-13 16:15:00,
2013-03-13 11:20:00,41.4,19.7,30.47,SSE,158,4.0,4.0,42,0.00,,,0.00,VWS V14.01,2013-03-13 16:20:00,
2013-03-13 11:25:00,42.1,20.4,30.47,East,90,3.6,3.6,42,0.00,,,0.00,VWS V14.01,2013-03-13 16:25:00,
2013-03-13 11:30:00,41.2,19.0,30.47,East,90,7.6,7.6,40,0.00,,,0.00,VWS V14.01,2013-03-13 16:30:00,
2013-03-13 11:35:00,42.1,19.8,30.47,ENE,68,3.6,4.9,40,0.00,,,0.00,VWS V14.01,2013-03-13 16:35:00,
2013-03-13 11:40:00,42.3,20.0,30.47,SSE,158,3.1,3.1,40,0.00,,,0.00,VWS V14.01,2013-03-13 16:40:00,
2013-03-13 11:45:00,42.4,19.5,30.47,East,90,6.7,8.3,40,0.00,,,0.00,VWS V14.01,2013-03-13 16:45:00,
2013-03-13 11:50:00,42.1,19.2,30.44,SE,135,4.0,5.8,40,0.00,,,0.00,VWS V14.01,2013-03-13 16:50:00,
2013-03-13 11:55:00,42.6,19.7,30.44,SE,135,4.0,5.8,40,0.00,,,0.00,VWS V14.01,2013-03-13 16:55:00,
2013-03-13 12:00:00,43.9,20.8,30.44,East,90,2.2,5.4,40,0.00,,,0.00,VWS V14.01,2013-03-13 17:00:00,
2013-03-13 12:05:00,44.2,21.2,30.44,East,90,2.2,4.0,40,0.00,,,0.00,VWS V14.01,2013-03-13 17:05:00,
2013-03-13 12:10:00,43.5,20.5,30.44,ESE,112,2.7,4.0,40,0.00,,,0.00,VWS V14.01,2013-03-13 17:10:00,
2013-03-13 12:15:00,43.5,20.5,30.44,South,180,0.0,0.0,40,0.00,,,0.00,VWS V14.01,2013-03-13 17:15:00,
2013-03-13 12:20:00,43.3,20.4,30.47,East,90,4.0,5.4,40,0.00,,,0.00,VWS V14.01,2013-03-13 17:20:00,
2013-03-13 12:25:00,42.8,18.7,30.47,East,90,4.0,4.9,38,0.00,,,0.00,VWS V14.01,2013-03-13 17:25:00,
2013-03-13 12:30:00,43.0,18.2,30.47,East,90,5.8,6.3,36,0.00,,,0.00,VWS V14.01,2013-03-13 17:30:00,
2013-03-13 12:35:00,42.4,17.7,30.47,SE,135,5.4,5.8,36,0.00,,,0.00,VWS V14.01,2013-03-13 17:35:00,
2013-03-13 12:40:00,43.3,18.5,30.47,ENE,68,5.8,8.7,36,0.00,,,0.00,VWS V14.01,2013-03-13 17:40:00,
2013-03-13 12:45:00,42.6,18.5,30.47,ENE,68,3.1,10.1,38,0.00,,,0.00,VWS V14.01,2013-03-13 17:45:00,
2013-03-13 12:50:00,43.3,19.1,30.47,NNE,22,2.7,2.7,38,0.00,,,0.00,VWS V14.01,2013-03-13 17:50:00,
2013-03-13 12:55:00,43.2,19.0,30.47,NE,45,0.0,0.0,38,0.00,,,0.00,VWS V14.01,2013-03-13 17:55:00,
2013-03-13 13:00:00,45.7,21.9,30.47,NE,45,8.1,8.3,38,0.00,,,0.00,VWS V14.01,2013-03-13 18:00:00,
2013-03-13 13:05:00,44.2,20.0,30.44,East,90,5.4,5.4,38,0.00,,,0.00,VWS V14.01,2013-03-13 18:05:00,
2013-03-13 13:10:00,43.9,18.4,30.44,NE,45,8.1,8.7,36,0.00,,,0.00,VWS V14.01,2013-03-13 18:10:00,
2013-03-13 13:15:00,43.9,19.0,30.44,ENE,68,7.6,7.6,36,0.00,,,0.00,VWS V14.01,2013-03-13 18:15:00,
2013-03-13 13:20:00,44.6,20.3,30.44,East,90,6.3,6.3,38,0.00,,,0.00,VWS V14.01,2013-03-13 18:20:00,
2013-03-13 13:25:00,45.5,20.4,30.44,NE,45,3.1,4.9,36,0.00,,,0.00,VWS V14.01,2013-03-13 18:25:00,
2013-03-13 13:30:00,44.8,20.4,30.44,NNE,22,4.0,4.0,38,0.00,,,0.00,VWS V14.01,2013-03-13 18:30:00,
2013-03-13 13:35:00,44.8,21.0,30.44,NE,45,2.7,4.9,38,0.00,,,0.00,VWS V14.01,2013-03-13 18:35:00,
2013-03-13 13:40:00,44.6,20.3,30.44,NW,315,6.3,6.3,38,0.00,,,0.00,VWS V14.01,2013-03-13 18:40:00,
2013-03-13 13:45:00,45.5,21.1,30.44,NE,45,3.1,4.0,38,0.00,,,0.00,VWS V14.01,2013-03-13 18:45:00,
2013-03-13 13:50:00,46.0,21.6,30.44,NE,45,0.0,2.7,38,0.00,,,0.00,VWS V14.01,2013-03-13 18:50:00,
2013-03-13 13:55:00,46.2,20.4,30.47,ENE,68,4.9,6.7,36,0.00,,,0.00,VWS V14.01,2013-03-13 18:55:00,
2013-03-13 14:00:00,46.4,21.2,30.47,North,0,0.0,4.5,36,0.00,,,0.00,VWS V14.01,2013-03-13 19:00:00,
2013-03-13 14:05:00,46.8,20.9,30.44,NNE,22,3.1,3.6,36,0.00,,,0.00,VWS V14.01,2013-03-13 19:05:00,
2013-03-13 14:10:00,46.9,20.4,30.44,NW,315,4.9,4.9,34,0.00,,,0.00,VWS V14.01,2013-03-13 19:10:00,
2013-03-13 14:15:00,47.3,20.0,30.44,North,0,0.0,0.0,34,0.00,,,0.00,VWS V14.01,2013-03-13 19:15:00,
2013-03-13 14:20:00,48.0,20.7,30.44,ENE,68,4.9,6.3,34,0.00,,,0.00,VWS V14.01,2013-03-13 19:20:00,
2013-03-13 14:25:00,49.1,20.9,30.44,East,90,5.8,5.8,32,0.00,,,0.00,VWS V14.01,2013-03-13 19:25:00,
2013-03-13 14:30:00,49.3,20.3,30.44,West,270,7.6,7.6,32,0.00,,,0.00,VWS V14.01,2013-03-13 19:30:00,
2013-03-13 14:35:00,50.2,19.6,30.44,South,180,4.0,5.8,30,0.00,,,0.00,VWS V14.01,2013-03-13 19:35:00,
2013-03-13 14:40:00,48.7,18.3,30.44,South,180,8.7,8.7,30,0.00,,,0.00,VWS V14.01,2013-03-13 19:40:00,
2013-03-13 14:45:00,49.3,18.8,30.44,East,90,5.8,5.8,30,0.00,,,0.00,VWS V14.01,2013-03-13 19:45:00,
2013-03-13 14:50:00,49.8,19.3,30.41,South,180,6.3,9.6,30,0.00,,,0.00,VWS V14.01,2013-03-13 19:50:00,
2013-03-13 14:55:00,49.1,17.8,30.41,South,180,3.1,5.4,28,0.00,,,0.00,VWS V14.01,2013-03-13 19:55:00,
2013-03-13 15:00:00,48.2,17.0,30.41,South,180,5.4,5.4,28,0.00,,,0.00,VWS V14.01,2013-03-13 20:00:00,
2013-03-13 15:05:00,48.9,17.7,30.41,SE,135,3.6,3.6,28,0.00,,,0.00,VWS V14.01,2013-03-13 20:05:00,
2013-03-13 15:10:00,48.6,17.4,30.41,SE,135,3.6,3.6,28,0.00,,,0.00,VWS V14.01,2013-03-13 20:10:00,
2013-03-13 15:15:00,48.6,17.4,30.41,South,180,4.9,8.1,28,0.00,,,0.00,VWS V14.01,2013-03-13 20:15:00,
2013-03-13 15:20:00,49.5,18.1,30.41,South,180,0.0,2.7,28,0.00,,,0.00,VWS V14.01,2013-03-13 20:20:00,
2013-03-13 15:25:00,50.2,18.8,30.41,SE,135,0.0,5.8,28,0.00,,,0.00,VWS V14.01,2013-03-13 20:25:00,
2013-03-13 15:30:00,49.6,18.3,30.41,NE,45,4.5,4.9,28,0.00,,,0.00,VWS V14.01,2013-03-13 20:30:00,
2013-03-13 15:35:00,50.7,19.2,30.41,SE,135,0.0,0.0,28,0.00,,,0.00,VWS V14.01,2013-03-13 20:35:00,
2013-03-13 15:40:00,50.9,19.4,30.41,East,90,4.9,5.8,28,0.00,,,0.00,VWS V14.01,2013-03-13 20:40:00,
2013-03-13 15:45:00,50.5,19.1,30.41,ESE,112,3.6,4.0,28,0.00,,,0.00,VWS V14.01,2013-03-13 20:45:00,
2013-03-13 15:50:00,51.4,19.9,30.41,SE,135,3.6,3.6,28,0.00,,,0.00,VWS V14.01,2013-03-13 20:50:00,
2013-03-13 15:55:00,51.3,19.7,30.41,SE,135,3.1,4.9,28,0.00,,,0.00,VWS V14.01,2013-03-13 20:55:00,
2013-03-13 16:00:00,51.6,19.2,30.41,NE,45,3.1,3.1,28,0.00,,,0.00,VWS V14.01,2013-03-13 21:00:00,
2013-03-13 16:05:00,50.5,18.2,30.41,East,90,4.5,5.8,28,0.00,,,0.00,VWS V14.01,2013-03-13 21:05:00,
2013-03-13 16:10:00,50.9,18.5,30.41,NE,45,3.1,4.9,28,0.00,,,0.00,VWS V14.01,2013-03-13 21:10:00,
2013-03-13 16:15:00,50.7,19.2,30.41,East,90,3.1,4.0,28,0.00,,,0.00,VWS V14.01,2013-03-13 21:15:00,
2013-03-13 16:20:00,50.4,18.1,30.41,ENE,68,4.9,4.9,28,0.00,,,0.00,VWS V14.01,2013-03-13 21:20:00,
2013-03-13 16:25:00,50.2,17.9,30.41,SE,135,4.0,4.0,28,0.00,,,0.00,VWS V14.01,2013-03-13 21:25:00,
2013-03-13 16:30:00,50.9,18.5,30.41,SE,135,0.0,0.0,28,0.00,,,0.00,VWS V14.01,2013-03-13 21:30:00,
2013-03-13 16:35:00,52.2,19.6,30.41,ENE,68,0.0,3.1,28,0.00,,,0.00,VWS V14.01,2013-03-13 21:35:00,
2013-03-13 16:40:00,52.7,20.1,30.41,NE,45,3.1,3.1,28,0.00,,,0.00,VWS V14.01,2013-03-13 21:40:00,
2013-03-13 16:45:00,53.6,20.9,30.41,NE,45,0.0,0.0,28,0.00,,,0.00,VWS V14.01,2013-03-13 21:45:00,
2013-03-13 16:50:00,53.1,20.4,30.39,East,90,2.7,3.1,28,0.00,,,0.00,VWS V14.01,2013-03-13 21:50:00,
2013-03-13 16:55:00,53.1,20.4,30.39,ENE,68,0.0,3.1,28,0.00,,,0.00,VWS V14.01,2013-03-13 21:55:00,
2013-03-13 17:00:00,53.6,20.9,30.39,NW,315,6.7,6.7,28,0.00,,,0.00,VWS V14.01,2013-03-13 22:00:00,
2013-03-13 17:05:00,50.9,18.5,30.39,West,270,4.0,6.3,28,0.00,,,0.00,VWS V14.01,2013-03-13 22:05:00,
2013-03-13 17:10:00,52.2,19.6,30.39,WSW,248,0.0,0.0,28,0.00,,,0.00,VWS V14.01,2013-03-13 22:10:00,
2013-03-13 17:15:00,52.2,19.6,30.39,North,0,2.7,4.9,28,0.00,,,0.00,VWS V14.01,2013-03-13 22:15:00,
2013-03-13 17:20:00,52.3,19.8,30.39,North,0,2.7,2.7,28,0.00,,,0.00,VWS V14.01,2013-03-13 22:20:00,
2013-03-13 17:25:00,52.9,20.3,30.39,North,0,3.6,4.0,28,0.00,,,0.00,VWS V14.01,2013-03-13 22:25:00,
2013-03-13 17:30:00,52.7,20.1,30.39,North,0,0.0,0.0,28,0.00,,,0.00,VWS V14.01,2013-03-13 22:30:00,
2013-03-13 17:35:00,51.6,19.2,30.41,West,270,3.1,4.0,28,0.00,,,0.00,VWS V14.01,2013-03-13 22:35:00,
2013-03-13 17:40:00,51.1,18.7,30.41,West,270,0.0,0.0,28,0.00,,,0.00,VWS V14.01,2013-03-13 22:40:00,
2013-03-13 17:45:00,52.3,19.8,30.41,NW,315,0.0,0.0,28,0.00,,,0.00,VWS V14.01,2013-03-13 22:45:00,
2013-03-13 17:50:00,52.0,19.5,30.41,NW,315,0.0,0.0,28,0.00,,,0.00,VWS V14.01,2013-03-13 22:50:00,
2013-03-13 17:55:00,52.3,19.8,30.39,West,270,5.4,6.3,28,0.00,,,0.00,VWS V14.01,2013-03-13 22:55:00,
2013-03-13 18:00:00,52.0,19.5,30.39,WNW,292,2.2,3.6,28,0.00,,,0.00,VWS V14.01,2013-03-13 23:00:00,
2013-03-13 18:05:00,51.6,19.2,30.39,WNW,292,0.0,2.7,28,0.00,,,0.00,VWS V14.01,2013-03-13 23:05:00,
2013-03-13 18:10:00,50.5,18.2,30.39,West,270,5.4,5.4,28,0.00,,,0.00,VWS V14.01,2013-03-13 23:10:00,
2013-03-13 18:15:00,50.5,18.2,30.39,West,270,2.2,4.0,28,0.00,,,0.00,VWS V14.01,2013-03-13 23:15:00,
2013-03-13 18:20:00,50.7,18.4,30.39,West,270,5.8,5.8,28,0.00,,,0.00,VWS V14.01,2013-03-13 23:20:00,
2013-03-13 18:25:00,51.3,18.9,30.39,West,270,3.6,4.0,28,0.00,,,0.00,VWS V14.01,2013-03-13 23:25:00,
2013-03-13 18:30:00,51.3,17.1,30.39,West,270,0.0,0.0,26,0.00,,,0.00,VWS V14.01,2013-03-13 23:30:00,
2013-03-13 18:35:00,51.4,17.3,30.39,NW,315,0.0,0.0,26,0.00,,,0.00,VWS V14.01,2013-03-13 23:35:00,
2013-03-13 18:40:00,51.3,17.1,30.39,West,270,0.0,0.0,26,0.00,,,0.00,VWS V14.01,2013-03-13 23:40:00,
2013-03-13 18:45:00,51.3,17.1,30.39,West,270,0.0,0.0,26,0.00,,,0.00,VWS V14.01,2013-03-13 23:45:00,
2013-03-13 18:50:00,51.4,17.3,30.39,West,270,0.0,0.0,26,0.00,,,0.00,VWS V14.01,2013-03-13 23:50:00,
2013-03-13 18:55:00,51.3,17.1,30.39,West,270,0.0,0.0,26,0.00,,,0.00,VWS V14.01,2013-03-13 23:55:00,
2013-03-13 19:00:00,50.7,16.6,30.39,West,270,0.0,0.0,26,0.00,,,0.00,VWS V14.01,2013-03-14 00:00:00,
2013-03-13 19:05:00,50.0,16.0,30.39,West,270,0.0,0.0,26,0.00,,,0.00,VWS V14.01,2013-03-14 00:05:00,
2013-03-13 19:10:00,49.8,15.9,30.39,West,270,0.0,0.0,26,0.00,,,0.00,VWS V14.01,2013-03-14 00:10:00,
2013-03-13 19:15:00,49.5,17.3,30.39,West,270,0.0,0.0,28,0.00,,,0.00,VWS V14.01,2013-03-14 00:15:00,
2013-03-13 19:20:00,48.9,16.9,30.39,West,270,0.0,0.0,28,0.00,,,0.00,VWS V14.01,2013-03-14 00:20:00,
2013-03-13 19:25:00,48.0,16.9,30.39,West,270,0.0,0.0,28,0.00,,,0.00,VWS V14.01,2013-03-14 00:25:00,
2013-03-13 19:30:00,47.5,16.4,30.39,West,270,0.0,0.0,28,0.00,,,0.00,VWS V14.01,2013-03-14 00:30:00,
2013-03-13 19:35:00,46.9,16.8,30.36,West,270,0.0,0.0,30,0.00,,,0.00,VWS V14.01,2013-03-14 00:35:00,
2013-03-13 19:40:00,46.0,16.7,30.36,West,270,0.0,0.0,30,0.00,,,0.00,VWS V14.01,2013-03-14 00:40:00,
2013-03-13 19:45:00,45.5,16.3,30.36,West,270,0.0,0.0,30,0.00,,,0.00,VWS V14.01,2013-03-14 00:45:00,
2013-03-13 19:50:00,45.1,15.9,30.36,West,270,0.0,0.0,30,0.00,,,0.00,VWS V14.01,2013-03-14 00:50:00,
2013-03-13 19:55:00,44.4,15.3,30.36,West,270,0.0,0.0,30,0.00,,,0.00,VWS V14.01,2013-03-14 00:55:00,
2013-03-13 20:00:00,43.7,15.4,30.36,West,270,0.0,0.0,32,0.00,,,0.00,VWS V14.01,2013-03-14 01:00:00,
2013-03-13 20:05:00,43.7,15.4,30.36,West,270,0.0,0.0,32,0.00,,,0.00,VWS V14.01,2013-03-14 01:05:00,
2013-03-13 20:10:00,43.3,15.1,30.39,West,270,0.0,0.0,32,0.00,,,0.00,VWS V14.01,2013-03-14 01:10:00,
2013-03-13 20:15:00,43.2,15.7,30.39,West,270,0.0,0.0,32,0.00,,,0.00,VWS V14.01,2013-03-14 01:15:00,
2013-03-13 20:20:00,42.8,15.4,30.39,West,270,0.0,0.0,32,0.00,,,0.00,VWS V14.01,2013-03-14 01:20:00,
2013-03-13 20:25:00,42.6,15.9,30.39,West,270,0.0,0.0,34,0.00,,,0.00,VWS V14.01,2013-03-14 01:25:00,
2013-03-13 20:30:00,41.7,15.1,30.39,West,270,0.0,0.0,34,0.00,,,0.00,VWS V14.01,2013-03-14 01:30:00,
2013-03-13 20:35:00,41.4,16.1,30.39,West,270,0.0,0.0,36,0.00,,,0.00,VWS V14.01,2013-03-14 01:35:00,
2013-03-13 20:40:00,41.2,17.2,30.39,West,270,0.0,0.0,38,0.00,,,0.00,VWS V14.01,2013-03-14 01:40:00,
2013-03-13 20:45:00,40.3,18.2,30.39,West,270,0.0,0.0,40,0.00,,,0.00,VWS V14.01,2013-03-14 01:45:00,
2013-03-13 20:50:00,40.3,18.2,30.39,West,270,0.0,0.0,40,0.00,,,0.00,VWS V14.01,2013-03-14 01:50:00,
2013-03-13 20:55:00,39.7,17.7,30.39,West,270,0.0,0.0,40,0.00,,,0.00,VWS V14.01,2013-03-14 01:55:00,
2013-03-13 21:00:00,40.1,17.4,30.39,West,270,0.0,0.0,40,0.00,,,0.00,VWS V14.01,2013-03-14 02:00:00,
2013-03-13 21:05:00,39.9,16.7,30.39,West,270,0.0,0.0,38,0.00,,,0.00,VWS V14.01,2013-03-14 02:05:00,
2013-03-13 21:10:00,39.4,17.4,30.39,West,270,0.0,0.0,40,0.00,,,0.00,VWS V14.01,2013-03-14 02:10:00,
2013-03-13 21:15:00,38.3,17.0,30.39,West,270,0.0,0.0,42,0.00,,,0.00,VWS V14.01,2013-03-14 02:15:00,
2013-03-13 21:20:00,37.8,17.0,30.39,West,270,0.0,0.0,42,0.00,,,0.00,VWS V14.01,2013-03-14 02:20:00,
2013-03-13 21:25:00,37.6,16.9,30.39,West,270,0.0,0.0,42,0.00,,,0.00,VWS V14.01,2013-03-14 02:25:00,
2013-03-13 21:30:00,37.6,16.9,30.39,West,270,0.0,0.0,42,0.00,,,0.00,VWS V14.01,2013-03-14 02:30:00,
2013-03-13 21:35:00,37.6,16.9,30.39,West,270,0.0,0.0,42,0.00,,,0.00,VWS V14.01,2013-03-14 02:35:00,
2013-03-13 21:40:00,37.8,17.0,30.39,West,270,0.0,0.0,42,0.00,,,0.00,VWS V14.01,2013-03-14 02:40:00,
2013-03-13 21:45:00,37.9,16.6,30.39,West,270,0.0,0.0,42,0.00,,,0.00,VWS V14.01,2013-03-14 02:45:00,
2013-03-13 21:50:00,37.4,16.7,30.39,West,270,0.0,0.0,42,0.00,,,0.00,VWS V14.01,2013-03-14 02:50:00,
2013-03-13 21:55:00,36.7,16.6,30.39,West,270,0.0,0.0,44,0.00,,,0.00,VWS V14.01,2013-03-14 02:55:00,
2013-03-13 22:00:00,36.9,16.7,30.39,West,270,0.0,0.0,44,0.00,,,0.00,VWS V14.01,2013-03-14 03:00:00,
2013-03-13 22:05:00,36.3,16.2,30.39,West,270,0.0,0.0,44,0.00,,,0.00,VWS V14.01,2013-03-14 03:05:00,
2013-03-13 22:10:00,35.1,18.1,30.39,West,270,0.0,0.0,50,0.00,,,0.00,VWS V14.01,2013-03-14 03:10:00,
2013-03-13 22:15:00,35.6,17.1,30.39,West,270,0.0,0.0,46,0.00,,,0.00,VWS V14.01,2013-03-14 03:15:00,
2013-03-13 22:20:00,36.0,17.5,30.39,West,270,0.0,0.0,46,0.00,,,0.00,VWS V14.01,2013-03-14 03:20:00,
2013-03-13 22:25:00,35.6,17.6,30.39,West,270,0.0,0.0,48,0.00,,,0.00,VWS V14.01,2013-03-14 03:25:00,
2013-03-13 22:30:00,35.6,17.6,30.39,West,270,0.0,0.0,48,0.00,,,0.00,VWS V14.01,2013-03-14 03:30:00,
2013-03-13 22:35:00,35.8,17.3,30.39,West,270,0.0,0.0,46,0.00,,,0.00,VWS V14.01,2013-03-14 03:35:00,
2013-03-13 22:40:00,35.4,17.5,30.39,West,270,0.0,0.0,48,0.00,,,0.00,VWS V14.01,2013-03-14 03:40:00,
2013-03-13 22:45:00,35.2,16.8,30.39,West,270,0.0,0.0,46,0.00,,,0.00,VWS V14.01,2013-03-14 03:45:00,
2013-03-13 22:50:00,35.6,17.1,30.39,West,270,0.0,0.0,46,0.00,,,0.00,VWS V14.01,2013-03-14 03:50:00,
2013-03-13 22:55:00,36.3,17.3,30.39,West,270,2.7,2.7,46,0.00,,,0.00,VWS V14.01,2013-03-14 03:55:00,
2013-03-13 23:00:00,36.3,17.3,30.39,West,270,0.0,2.2,46,0.00,,,0.00,VWS V14.01,2013-03-14 04:00:00,
2013-03-13 23:05:00,36.3,17.3,30.39,West,270,0.0,0.0,46,0.00,,,0.00,VWS V14.01,2013-03-14 04:05:00,
2013-03-13 23:10:00,36.0,17.0,30.39,West,270,0.0,0.0,46,0.00,,,0.00,VWS V14.01,2013-03-14 04:10:00,
2013-03-13 23:15:00,36.0,17.5,30.39,West,270,0.0,0.0,46,0.00,,,0.00,VWS V14.01,2013-03-14 04:15:00,
2013-03-13 23:20:00,36.0,17.0,30.39,West,270,0.0,0.0,46,0.00,,,0.00,VWS V14.01,2013-03-14 04:20:00,
2013-03-13 23:25:00,36.1,17.1,30.39,West,270,0.0,0.0,46,0.00,,,0.00,VWS V14.01,2013-03-14 04:25:00,
2013-03-13 23:30:00,36.9,16.7,30.39,West,270,0.0,0.0,44,0.00,,,0.00,VWS V14.01,2013-03-14 04:30:00,
2013-03-13 23:35:00,36.3,16.8,30.39,West,270,0.0,0.0,44,0.00,,,0.00,VWS V14.01,2013-03-14 04:35:00,
2013-03-13 23:40:00,36.1,16.6,30.39,West,270,0.0,0.0,44,0.00,,,0.00,VWS V14.01,2013-03-14 04:40:00,
2013-03-13 23:45:00,37.2,17.1,30.39,WSW,248,3.1,3.1,44,0.00,,,0.00,VWS V14.01,2013-03-14 04:45:00,
2013-03-13 23:50:00,37.2,17.1,30.39,SW,225,3.1,3.6,44,0.00,,,0.00,VWS V14.01,2013-03-14 04:50:00,
2013-03-13 23:55:00,37.9,17.2,30.39,SW,225,3.6,4.0,42,0.00,,,0.00,VWS V14.01,2013-03-14 04:55:00,